Location: Ferchesar
(52.6477°N, 12.4298°E)
Time: 09:40:55
(UTC+01:00)

Vanguard 3 - Pass Details

Date: 05 December 2021
Orbit: 508 x 3260 km, 33.3° (Epoch: 25 January)

Event Time Altitude Azimuth Distance (km) Brightness Sun altitude
Exits shadow 02:08:29 22° 155° (SSE) 5,206 11.0 -51.1°
Maximum altitude 02:11:05 23° 145° (SE) 5,151 11.0 -50.8°
Drops below altitude 10° 02:23:35 10° 103° (ESE) 5,811 11.8 -49.3°
Sets 02:29:02 0° 91° (E) 6,505 12.3 -48.6°
